User: anonymous   Login
Location: ?
(35.2180°N, 139.6392°E)
Time: 20:56:00
(UTC+00:00)
Language:

CZ-2C R/B - Orbit

View from above orbital plane
View from above orbital plane
View from above satellite
View from above satellite

Ground track
Ground track

The orbit data is extracted from the following two-line orbital elements,

1 31114U 07010B   24277.21694520  .00000908  00000-0  43894-3 0  9997
2 31114  98.3489  47.0684 0059495  15.0832 345.2103 14.19907774905576
Epoch (UTC): 03 October 2024 05:12:24
Eccentricity: 0.0059495
inclination: 98.3489°
perigee height: 783 km
apogee height: 868 km
right ascension of ascending node: 47.0684°
argument of perigee: 15.0832°
revolutions per day: 14.19907774
mean anomaly at epoch: 345.2103°
orbit number at epoch: 90557

The dashed part of the orbit path shows where the satellite is in the earth's shadow,  

DLR